Вернуться в каталог

COSMOS 1727

АктивенВоенныеPO
NORAD 16510·PAYLOAD·🇷🇺 Russia

Запущен Jan 23, 1986 с Plesetsk Cosmodrome

Loading…

Ближайшие Пролёты (ближайшие 24 часа)

TLE

СвежийSource: Space-Track

Эпоха: Sep 14, 2026, 18:51 UTC

1 16510U 86008A   26257.78587410  .00000040  00000-0  25882-4 0  9990
2 16510  82.9435 266.6877 0037480 344.6153 188.2527 13.74690724 37990

Отслеживайте COSMOS 1727 в реальном времени с AllMySat

Download on the App Store